| time (UTC) | temp F | wind direction | speed knots | gust knots | rain 1hr in | rain 24hr in | rain mn in | humidity % | barometer mb |
| 20260506024535 | 67 | 279 | 3.5 | 10.4 | 0.00 | 0.18 | 0.00 | 34 | 1008.3 |
| 20260506023031 | 68 | 261 | 6.1 | 8.7 | 0.00 | 0.18 | 0.00 | 30 | 1008.2 |
| 20260506021530 | 69 | 259 | 1.7 | 4.3 | 0.00 | 0.18 | 0.00 | 25 | 1008.1 |
| 20260506020033 | 69 | 284 | 0.0 | 3.5 | 0.00 | 0.18 | 0.00 | 25 | 1008.2 |
| 20260506014530 | 71 | 306 | 2.6 | 7.0 | 0.00 | 0.24 | 0.00 | 22 | 1008.1 |
| 20260506013032 | 73 | 5 | 0.9 | 3.5 | 0.00 | 0.24 | 0.00 | 20 | 1008.2 |
| 20260506011539 | 74 | 360 | 0.0 | 3.5 | 0.00 | 0.24 | 0.00 | 18 | 1008.3 |
| 20260506010023 | 73 | 304 | 0.0 | 5.2 | 0.00 | 0.24 | 0.00 | 19 | 1008.5 |
| 20260506004535 | 74 | 327 | 0.0 | 7.8 | 0.00 | 0.26 | 0.00 | 18 | 1008.5 |
| 20260506003021 | 72 | 332 | 4.3 | 9.6 | 0.00 | 0.26 | 0.00 | 19 | 1008.4 |
| 20260506001524 | 72 | 360 | 3.5 | 7.0 | 0.00 | 0.26 | 0.00 | 19 | 1008.6 |
| 20260506000021 | 73 | 49 | 1.7 | 7.0 | 0.00 | 0.26 | 0.00 | 20 | 1008.6 |
| 20260505234517 | 73 | 20 | 5.2 | 10.4 | 0.00 | 0.26 | 0.00 | 20 | 1008.7 |
| 20260505233025 | 72 | 355 | 0.0 | 4.3 | 0.00 | 0.26 | 0.00 | 22 | 1008.7 |
| 20260505231520 | 71 | 32 | 2.6 | 10.4 | 0.00 | 0.26 | 0.00 | 21 | 1008.8 |
| 20260505230012 | 71 | 72 | 1.7 | 13.0 | 0.00 | 0.26 | 0.00 | 20 | 1009.0 |
| 20260505224511 | 71 | 87 | 0.0 | 9.6 | 0.00 | 0.26 | 0.00 | 22 | 1009.0 |
| 20260505223015 | 71 | 49 | 2.6 | 10.4 | 0.00 | 0.26 | 0.00 | 22 | 1009.1 |
| 20260505221504 | 69 | 28 | 2.6 | 10.4 | 0.00 | 0.26 | 0.00 | 25 | 1009.4 |
| 20260505220001 | 68 | 96 | 1.7 | 8.7 | 0.00 | 0.26 | 0.00 | 25 | 1009.6 |
| 20260505214602 | 67 | 25 | 0.0 | 13.0 | 0.00 | 0.26 | 0.00 | 26 | 1009.6 |
| 20260505213058 | 68 | 319 | 0.9 | 11.3 | 0.00 | 0.26 | 0.00 | 28 | 1009.8 |
| 20260505211552 | 66 | 265 | 0.0 | 6.1 | 0.00 | 0.26 | 0.00 | 34 | 1010.0 |
| 20260505210054 | 66 | 160 | 0.0 | 4.3 | 0.00 | 0.26 | 0.00 | 34 | 1010.1 |
| 20260505204557 | 66 | 290 | 0.0 | 7.0 | 0.00 | 0.26 | 0.00 | 32 | 1010.4 |
| 20260505203046 | 65 | 56 | 0.0 | 5.2 | 0.00 | 0.26 | 0.00 | 37 | 1010.5 |
| 20260505201547 | 64 | 212 | 0.9 | 5.2 | 0.00 | 0.26 | 0.00 | 37 | 1010.6 |
| 20260505200040 | 63 | 236 | 0.9 | 5.2 | 0.00 | 0.26 | 0.00 | 39 | 1010.7 |
| 20260505194535 | 62 | 120 | 2.6 | 8.7 | 0.00 | 0.26 | 0.00 | 44 | 1011.0 |
| 20260505193041 | 61 | 129 | 0.9 | 7.0 | 0.00 | 0.26 | 0.00 | 44 | 1011.0 |
| 20260505191535 | 61 | 36 | 0.0 | 7.8 | 0.00 | 0.26 | 0.00 | 45 | 1011.0 |
| 20260505190031 | 61 | 341 | 0.9 | 6.1 | 0.00 | 0.26 | 0.00 | 46 | 1010.9 |
| 20260505184527 | 59 | 161 | 1.7 | 6.1 | 0.00 | 0.26 | 0.00 | 50 | 1011.0 |
| 20260505183034 | 57 | 196 | 0.9 | 5.2 | 0.00 | 0.26 | 0.00 | 54 | 1011.1 |
| 20260505181519 | 56 | 261 | 0.0 | 3.5 | 0.00 | 0.26 | 0.00 | 52 | 1011.1 |
| 20260505180019 | 56 | 235 | 1.7 | 3.5 | 0.00 | 0.26 | 0.00 | 54 | 1011.0 |
| 20260505174515 | 56 | 16 | 0.9 | 6.1 | 0.00 | 0.26 | 0.00 | 53 | 1010.9 |
| 20260505173013 | 55 | 317 | 1.7 | 7.0 | 0.00 | 0.26 | 0.00 | 54 | 1010.7 |
| 20260505171510 | 55 | 249 | 1.7 | 7.8 | 0.00 | 0.26 | 0.00 | 55 | 1010.7 |
| 20260505170005 | 54 | 284 | 1.7 | 6.1 | 0.00 | 0.26 | 0.00 | 58 | 1010.5 |
| 20260505164604 | 53 | 276 | 3.5 | 7.0 | 0.00 | 0.27 | 0.00 | 58 | 1010.5 |
| 20260505163056 | 52 | 134 | 0.0 | 0.0 | 0.00 | 0.27 | 0.00 | 60 | 1010.5 |
| 20260505161556 | 51 | 267 | 0.0 | 0.0 | 0.00 | 0.27 | 0.00 | 61 | 1010.4 |
| 20260505153050 | 49 | 248 | 0.0 | 1.7 | 0.00 | 0.27 | 0.00 | 64 | 1010.1 |
| 20260505151536 | 48 | 259 | 0.0 | 1.7 | 0.00 | 0.27 | 0.00 | 65 | 1009.9 |
| 20260505124523 | 46 | 295 | 5.2 | 10.4 | 0.00 | 0.27 | 0.00 | 65 | 1008.4 |
| 20260505123013 | 46 | 289 | 4.3 | 10.4 | 0.00 | 0.27 | 0.00 | 66 | 1008.5 |
| 20260505121514 | 45 | 268 | 5.2 | 9.6 | 0.00 | 0.27 | 0.00 | 66 | 1008.5 |
| 20260505120009 | 45 | 293 | 6.1 | 10.4 | 0.00 | 0.27 | 0.00 | 66 | 1008.5 |
| 20260505114511 | 45 | 336 | 4.3 | 8.7 | 0.00 | 0.27 | 0.00 | 66 | 1008.5 |
| 20260505113010 | 45 | 290 | 4.3 | 8.7 | 0.00 | 0.27 | 0.00 | 66 | 1008.5 |
| 20260505111512 | 45 | 315 | 4.3 | 11.3 | 0.00 | 0.27 | 0.00 | 66 | 1008.5 |
| 20260505101503 | 45 | 274 | 2.6 | 6.1 | 0.00 | 0.27 | 0.00 | 67 | 1008.7 |
| 20260505100057 | 45 | 267 | 2.6 | 7.0 | 0.00 | 0.27 | 0.00 | 67 | 1008.7 |
| 20260505094557 | 44 | 296 | 2.6 | 6.1 | 0.00 | 0.27 | 0.00 | 68 | 1008.8 |
| 20260505093104 | 44 | 277 | 3.5 | 9.6 | 0.00 | 0.27 | 0.00 | 68 | 1008.7 |
| 20260505091554 | 44 | 304 | 2.6 | 7.0 | 0.00 | 0.27 | 0.00 | 69 | 1008.8 |
| 20260505090053 | 44 | 290 | 2.6 | 6.1 | 0.00 | 0.27 | 0.00 | 69 | 1008.6 |
| 20260505084553 | 44 | 336 | 2.6 | 10.4 | 0.00 | 0.27 | 0.00 | 69 | 1008.8 |
| 20260505083053 | 44 | 306 | 4.3 | 9.6 | 0.00 | 0.27 | 0.00 | 70 | 1008.8 |
| 20260505081551 | 44 | 305 | 6.1 | 12.2 | 0.00 | 0.27 | 0.00 | 70 | 1008.9 |
| 20260505080048 | 43 | 216 | 0.0 | 3.5 | 0.00 | 0.27 | 0.00 | 71 | 1009.1 |
| 20260505074540 | 44 | 242 | 0.0 | 2.6 | 0.00 | 0.27 | 0.00 | 71 | 1009.3 |
| 20260505073037 | 44 | 250 | 3.5 | 6.1 | 0.00 | 0.27 | 0.00 | 71 | 1008.8 |
| 20260505071530 | 43 | 211 | 0.0 | 2.6 | 0.00 | 0.27 | 0.00 | 71 | 1009.4 |
| 20260505070039 | 43 | 267 | 0.9 | 2.6 | 0.01 | 0.27 | 0.00 | 71 | 1009.0 |
| 20260505064524 | 44 | 331 | 0.0 | 7.8 | 0.01 | 0.27 | 0.27 | 71 | 1008.8 |
| 20260505063031 | 44 | 140 | 0.0 | 3.5 | 0.02 | 0.27 | 0.27 | 70 | 1008.7 |
| 20260505061526 | 44 | 144 | 0.0 | 5.2 | 0.03 | 0.27 | 0.27 | 69 | 1008.1 |
| 20260505060023 | 45 | 229 | 2.6 | 9.6 | 0.03 | 0.26 | 0.26 | 68 | 1008.2 |
| 20260505054519 | 45 | 252 | 6.1 | 11.3 | 0.04 | 0.26 | 0.26 | 69 | 1008.2 |
| 20260505053020 | 45 | 271 | 8.7 | 17.4 | 0.04 | 0.25 | 0.25 | 69 | 1008.2 |
| 20260505051518 | 45 | 275 | 7.8 | 13.9 | 0.04 | 0.24 | 0.24 | 71 | 1008.1 |
| 20260505041508 | 46 | 122 | 0.9 | 8.7 | 0.05 | 0.20 | 0.20 | 75 | 1008.1 |
| 20260505040006 | 46 | 260 | 2.6 | 7.8 | 0.05 | 0.19 | 0.19 | 76 | 1007.7 |
| 20260505034504 | 46 | 10 | 2.6 | 9.6 | 0.05 | 0.18 | 0.18 | 76 | 1008.0 |
| 20260505033005 | 46 | 41 | 3.5 | 7.8 | 0.05 | 0.16 | 0.16 | 75 | 1007.8 |
| 20260505031503 | 46 | 33 | 2.6 | 4.3 | 0.05 | 0.15 | 0.15 | 72 | 1007.5 |
| 20260505030005 | 46 | 169 | 3.5 | 6.1 | 0.05 | 0.14 | 0.14 | 72 | 1007.2 |